When you browse on this site, cookies collect data to enhance your experience and personalize the content and advertising you see.
Visit our Privacy Policy to learn more. By continuing to use the site, you agree to this use of cookies and data.
  • In Czech Republic
  • List of Countries
  • For 7 days
  • Water Temperature
  • Weather Map
  • Weather Widgets
  • user-avatar
    Login

    Hourly Weather Wien

    Today, 6 June, Saturday

    Time Temperature Precipitation Wind Pressure Humidity
    00:00 +14°C° 0 mm 1 mps 736 mmHg 79%
    01:00 +13°C° 0 mm 1 mps 736 mmHg 79%
    02:00 +13°C° 0 mm 1 mps 737 mmHg 79%
    03:00 +13°C° 0 mm 1 mps 737 mmHg 79%
    04:00 +13°C° 0 mm 1 mps 737 mmHg 79%
    05:00 +14°C° 0 mm 1 mps 737 mmHg 76%
    06:00 +16°C° 0 mm 2 mps 737 mmHg 74%
    07:00 +17°C° 0 mm 2 mps 738 mmHg 71%
    08:00 +19°C° 0 mm 3 mps 738 mmHg 66%
    09:00 +20°C° 0 mm 4 mps 738 mmHg 60%
    10:00 +21°C° 0 mm 5 mps 738 mmHg 55%
    11:00 +22°C° 0 mm 5 mps 737 mmHg 54%
    12:00 +23°C° 0 mm 6 mps 737 mmHg 54%
    13:00 +23°C° 0 mm 6 mps 737 mmHg 53%
    14:00 +23°C° 0 mm 6 mps 736 mmHg 55%
    15:00 +24°C° 0 mm 6 mps 736 mmHg 56%
    16:00 +25°C° 0 mm 5 mps 735 mmHg 57%
    17:00 +23°C° 0 mm 5 mps 735 mmHg 63%
    18:00 +22°C° 0 mm 4 mps 735 mmHg 68%
    19:00 +21°C° 0 mm 4 mps 735 mmHg 74%
    20:00 +20°C° 0.2 mm 3 mps 736 mmHg 78%
    21:00 +19°C° 0.2 mm 3 mps 736 mmHg 83%
    22:00 +18°C° 0.2 mm 2 mps 736 mmHg 87%
    23:00 +17°C° 0.3 mm 2 mps 737 mmHg 88%

    Tomorrow, 7 June, Sunday

    Time Temperature Precipitation Wind Pressure Humidity
    00:00 +17°C° 0.3 mm 2 mps 737 mmHg 89%
    01:00 +16°C° 0.3 mm 3 mps 737 mmHg 90%
    02:00 +16°C° 0 mm 2 mps 737 mmHg 89%
    03:00 +15°C° 0 mm 2 mps 737 mmHg 89%
    04:00 +15°C° 0 mm 2 mps 736 mmHg 88%
    05:00 +16°C° 0 mm 2 mps 736 mmHg 85%
    06:00 +17°C° 0 mm 2 mps 736 mmHg 82%
    07:00 +18°C° 0 mm 2 mps 737 mmHg 79%
    08:00 +20°C° 0 mm 1 mps 736 mmHg 76%
    09:00 +21°C° 0 mm 1 mps 736 mmHg 72%
    10:00 +23°C° 0 mm 1 mps 736 mmHg 68%
    11:00 +24°C° 0 mm 1 mps 736 mmHg 66%
    12:00 +24°C° 0 mm 2 mps 736 mmHg 64%
    13:00 +25°C° 0 mm 2 mps 736 mmHg 62%
    14:00 +25°C° 0.2 mm 3 mps 735 mmHg 61%
    15:00 +26°C° 0.2 mm 3 mps 735 mmHg 61%
    16:00 +26°C° 0.2 mm 3 mps 735 mmHg 61%
    17:00 +23°C° 1.9 mm 4 mps 735 mmHg 67%
    18:00 +21°C° 1.9 mm 4 mps 735 mmHg 74%
    19:00 +20°C° 1.9 mm 4 mps 735 mmHg 81%
    20:00 +17°C° 1.2 mm 5 mps 736 mmHg 83%
    21:00 +15°C° 1.2 mm 6 mps 736 mmHg 85%
    22:00 +13°C° 1.2 mm 8 mps 736 mmHg 87%
    23:00 +12°C° 0.1 mm 7 mps 737 mmHg 86%

    Day after tomorrow, 8 June, Monday

    Time Temperature Precipitation Wind Pressure Humidity
    00:00 +12°C° 0.1 mm 7 mps 737 mmHg 84%
    01:00 +12°C° 0.1 mm 7 mps 737 mmHg 83%
    02:00 +11°C° 0.2 mm 7 mps 737 mmHg 83%
    03:00 +11°C° 0.2 mm 6 mps 738 mmHg 82%
    04:00 +11°C° 0.2 mm 6 mps 738 mmHg 82%
    05:00 +11°C° 0 mm 6 mps 738 mmHg 80%
    06:00 +13°C° 0 mm 5 mps 739 mmHg 78%
    07:00 +13°C° 0 mm 5 mps 739 mmHg 77%
    08:00 +14°C° 0 mm 5 mps 739 mmHg 74%
    09:00 +15°C° 0 mm 5 mps 740 mmHg 71%
    10:00 +16°C° 0 mm 5 mps 740 mmHg 67%
    11:00 +18°C° 0 mm 4 mps 740 mmHg 66%
    12:00 +19°C° 0 mm 4 mps 740 mmHg 65%
    13:00 +19°C° 0 mm 4 mps 740 mmHg 64%
    14:00 +20°C° 0 mm 4 mps 740 mmHg 64%
    15:00 +20°C° 0 mm 4 mps 740 mmHg 64%
    16:00 +20°C° 0 mm 3 mps 740 mmHg 64%
    17:00 +19°C° 0 mm 3 mps 740 mmHg 69%
    18:00 +19°C° 0 mm 3 mps 740 mmHg 73%
    19:00 +18°C° 0 mm 3 mps 740 mmHg 77%
    20:00 +16°C° 0 mm 3 mps 740 mmHg 80%
    21:00 +15°C° 0 mm 2 mps 740 mmHg 83%
    22:00 +14°C° 0 mm 2 mps 741 mmHg 86%
    23:00 +13°C° 0 mm 2 mps 741 mmHg 87%

    9 June, Tuesday

    Time Temperature Precipitation Wind Pressure Humidity
    00:00 +13°C° 0 mm 2 mps 740 mmHg 87%
    01:00 +13°C° 0 mm 2 mps 740 mmHg 88%
    02:00 +12°C° 0 mm 2 mps 740 mmHg 88%
    03:00 +12°C° 0 mm 2 mps 740 mmHg 89%
    04:00 +12°C° 0 mm 2 mps 740 mmHg 90%
    05:00 +13°C° 0 mm 2 mps 740 mmHg 85%
    06:00 +13°C° 0 mm 3 mps 741 mmHg 81%
    07:00 +14°C° 0 mm 3 mps 741 mmHg 77%
    08:00 +17°C° 0 mm 3 mps 741 mmHg 73%
    09:00 +18°C° 0 mm 3 mps 741 mmHg 69%
    10:00 +19°C° 0 mm 3 mps 741 mmHg 64%
    11:00 +20°C° 0 mm 3 mps 741 mmHg 64%
    12:00 +21°C° 0 mm 3 mps 740 mmHg 63%
    13:00 +21°C° 0 mm 4 mps 740 mmHg 63%
    14:00 +21°C° 0 mm 4 mps 740 mmHg 64%
    15:00 +22°C° 0 mm 4 mps 740 mmHg 65%
    16:00 +22°C° 0 mm 4 mps 739 mmHg 65%
    17:00 +21°C° 0 mm 3 mps 739 mmHg 70%
    18:00 +20°C° 0 mm 3 mps 740 mmHg 75%
    19:00 +19°C° 0 mm 3 mps 740 mmHg 80%
    20:00 +18°C° 0 mm 3 mps 740 mmHg 83%
    21:00 +16°C° 0 mm 3 mps 740 mmHg 86%
    22:00 +14°C° 0 mm 3 mps 740 mmHg 88%
    23:00 +15°C° 0 mm 2 mps 740 mmHg 89%

    10 June, Wednesday

    Time Temperature Precipitation Wind Pressure Humidity
    00:00 +14°C° 0 mm 2 mps 740 mmHg 90%
    01:00 +14°C° 0 mm 2 mps 740 mmHg 91%
    02:00 +14°C° 0 mm 2 mps 740 mmHg 91%
    03:00 +14°C° 0 mm 2 mps 740 mmHg 91%
    04:00 +14°C° 0 mm 2 mps 740 mmHg 91%
    05:00 +15°C° 0 mm 2 mps 740 mmHg 89%
    06:00 +15°C° 0 mm 2 mps 740 mmHg 87%
    07:00 +16°C° 0 mm 3 mps 740 mmHg 85%
    08:00 +17°C° 0 mm 2 mps 740 mmHg 82%
    09:00 +18°C° 0 mm 2 mps 740 mmHg 80%
    10:00 +19°C° 0 mm 2 mps 741 mmHg 77%
    11:00 +20°C° 0.3 mm 2 mps 740 mmHg 77%
    12:00 +20°C° 0.3 mm 2 mps 740 mmHg 78%
    13:00 +21°C° 0.3 mm 2 mps 740 mmHg 78%
    14:00 +21°C° 0.9 mm 3 mps 740 mmHg 79%
    15:00 +21°C° 0.9 mm 3 mps 740 mmHg 79%
    16:00 +21°C° 0.9 mm 4 mps 740 mmHg 79%
    17:00 +20°C° 0.6 mm 3 mps 740 mmHg 81%
    18:00 +19°C° 0.6 mm 3 mps 740 mmHg 83%
    19:00 +19°C° 0.6 mm 3 mps 740 mmHg 84%
    20:00 +18°C° 0.1 mm 3 mps 740 mmHg 85%
    21:00 +17°C° 0.1 mm 3 mps 741 mmHg 86%
    22:00 +17°C° 0.1 mm 2 mps 741 mmHg 87%
    23:00 +16°C° 0.1 mm 3 mps 741 mmHg 87%

    11 June, Thursday

    Time Temperature Precipitation Wind Pressure Humidity
    00:00 +16°C° 0.1 mm 3 mps 741 mmHg 88%
    01:00 +16°C° 0.1 mm 3 mps 741 mmHg 88%
    02:00 +14°C° 0 mm 3 mps 741 mmHg 87%
    03:00 +14°C° 0 mm 3 mps 740 mmHg 87%
    04:00 +14°C° 0 mm 3 mps 740 mmHg 86%
    05:00 +14°C° 1 mm 3 mps 741 mmHg 88%
    06:00 +14°C° 1 mm 4 mps 741 mmHg 89%
    07:00 +14°C° 1 mm 4 mps 741 mmHg 91%
    08:00 +14°C° 1.8 mm 4 mps 741 mmHg 91%
    09:00 +14°C° 1.8 mm 4 mps 741 mmHg 92%
    10:00 +14°C° 1.8 mm 4 mps 741 mmHg 93%
    11:00 +14°C° 1.1 mm 5 mps 741 mmHg 92%
    12:00 +14°C° 1.1 mm 5 mps 741 mmHg 91%
    13:00 +14°C° 1.1 mm 5 mps 741 mmHg 90%
    14:00 +14°C° 0.1 mm 5 mps 741 mmHg 89%
    15:00 +14°C° 0.1 mm 5 mps 741 mmHg 88%
    16:00 +14°C° 0.1 mm 5 mps 741 mmHg 87%
    17:00 +14°C° 0 mm 5 mps 741 mmHg 87%
    18:00 +14°C° 0 mm 5 mps 741 mmHg 87%
    19:00 +14°C° 0 mm 4 mps 741 mmHg 86%
    20:00 +14°C° 0 mm 4 mps 741 mmHg 86%
    21:00 +13°C° 0 mm 4 mps 741 mmHg 86%
    22:00 +13°C° 0 mm 4 mps 741 mmHg 86%
    23:00 +13°C° 0.1 mm 4 mps 741 mmHg 86%
    Show more